Flag for U.S.A. Weather past 2 weeks in Winston-Salem, North Carolina, U.S.A.

Now
71 °F

Passing clouds.


Feels Like: 70 °F
Forecast: 69 / 83 °F
Wind: 3 mph from West

Location: Smith Reynolds Airport

Current Time: Jul 2, 2015 at 6:44:25 AM

Latest Report: Jul 2, 2015 at 5:54 AM


Visibility: 6 mi

Pressure: 29.90 "Hg

Humidity: 84%

Dew point: 66 °F

Location of Winston-SalemLocation

Historic Weather in Winston-Salem — Graph

°F

Winston-Salem temperature yesterday

Maximum temperature yesterday: 87 °F (at 3:54 PM)
Minimum temperature yesterday: 67 °F (at 5:54 AM)
Average temperature yesterday: 76 °F

Past Weeks' High & Low Weather Summary

 TemperatureHumidityPressure
High95 °F (Jun 23, 2:54 PM)94% (Jun 27, 8:54 PM)30.12 "Hg (Jun 27, 8:54 PM)
Low58 °F (Jun 29, 5:54 AM)4% (Jun 24, 5:54 PM)29.74 "Hg (Jun 27, 4:54 PM)
Average80 °F62%29.97 "Hg
* Reported Jun 17 6:54 AM — Jul 2 4:54 AM, Winston-Salem, Weather by CustomWeather, © 2015

Note: Actual official high and low records may vary slightly from our data, if they occured in-between our weather recording intervals... More about our weather records

Advertising

Winston-Salem weather history for previous 24 hours

 ConditionsComfort  
Time TempWeatherWind HumidityBarometerVisibility
4:54 AM
Thu, Jul 2
72 °FClear.3 mph81%29.90 "Hg7 mi
3:54 AM72 °FClear.No wind78%29.90 "Hg7 mi
2:54 AM73 °FPassing clouds.3 mph76%29.91 "Hg7 mi
1:54 AM74 °FPassing clouds.6 mph79%29.93 "Hg7 mi
12:54 AM74 °FClear.3 mph79%29.93 "Hg7 mi
11:54 PM
Wed, Jul 1
75 °FPassing clouds.3 mph76%29.93 "Hg7 mi
10:54 PM74 °FPassing clouds.No wind79%29.95 "Hg7 mi
9:54 PM73 °FClear.No wind84%29.94 "Hg6 mi
8:54 PM73 °FSunny.7 mph79%29.94 "Hg7 mi
7:54 PM76 °FHaze.No wind69%29.93 "Hg6 mi
6:54 PM78 °FScattered clouds.13 mph64%29.92 "Hg6 mi
5:54 PM85 °FSunny.7 mph45%29.90 "Hg6 mi
4:54 PM86 °FSunny.6 mph43%29.89 "Hg6 mi
3:54 PM87 °FHaze.8 mph42%29.91 "Hg6 mi
2:54 PM86 °FPassing clouds.8 mph43%29.93 "Hg7 mi
1:54 PM85 °FScattered clouds.7 mph46%29.94 "Hg8 mi
12:54 PM84 °FSunny.5 mph48%29.95 "Hg9 mi
11:54 AM82 °FSunny.8 mph49%29.96 "Hg9 mi
10:54 AM80 °FSunny.3 mph56%29.96 "Hg10 mi
9:54 AM76 °FSunny.3 mph67%29.95 "Hg10 mi
8:54 AM72 °FSunny.No wind76%29.95 "Hg10 mi
7:54 AM69 °FSunny.3 mph81%29.95 "Hg9 mi
6:54 AM68 °FClear.No wind84%29.94 "Hg8 mi
Weather by CustomWeather, © 2015

See weather overviewHow to use our weather pages